| time (UTC) | temp F | wind direction | speed knots | gust knots | rain 1hr in | rain 24hr in | rain mn in | humidity % | barometer mb |
| 20260510211505 | 88 | 146 | 2.6 | 6.1 | 0.00 | 0.00 | 0.00 | 55 | 1009.9 |
| 20260510210002 | 87 | 156 | 3.5 | 6.1 | 0.00 | 0.00 | 0.00 | 55 | 1010.1 |
| 20260510204604 | 87 | 114 | 3.5 | 7.8 | 0.00 | 0.00 | 0.00 | 55 | 1010.1 |
| 20260510203059 | 87 | 150 | 2.6 | 9.6 | 0.00 | 0.00 | 0.00 | 58 | 1010.2 |
| 20260510201558 | 87 | 109 | 4.3 | 7.8 | 0.00 | 0.00 | 0.00 | 58 | 1010.2 |
| 20260510200054 | 86 | 119 | 2.6 | 7.8 | 0.00 | 0.00 | 0.00 | 58 | 1010.5 |
| 20260510194553 | 86 | 148 | 3.5 | 6.1 | 0.00 | 0.00 | 0.00 | 60 | 1010.6 |
| 20260510193103 | 86 | 115 | 2.6 | 7.0 | 0.00 | 0.00 | 0.00 | 60 | 1010.8 |
| 20260510191557 | 85 | 107 | 2.6 | 6.1 | 0.00 | 0.00 | 0.00 | 61 | 1010.9 |
| 20260510190053 | 85 | 112 | 1.7 | 7.0 | 0.00 | 0.00 | 0.00 | 62 | 1011.1 |
| 20260510184549 | 85 | 121 | 3.5 | 7.8 | 0.00 | 0.00 | 0.00 | 62 | 1011.2 |
| 20260510183051 | 85 | 113 | 2.6 | 6.1 | 0.00 | 0.00 | 0.00 | 63 | 1011.3 |
| 20260510181546 | 84 | 113 | 4.3 | 7.8 | 0.00 | 0.00 | 0.00 | 63 | 1011.7 |
| 20260510180051 | 84 | 94 | 2.6 | 7.0 | 0.00 | 0.00 | 0.00 | 65 | 1011.9 |
| 20260510174542 | 83 | 109 | 1.7 | 7.0 | 0.00 | 0.00 | 0.00 | 67 | 1011.9 |
| 20260510173040 | 83 | 123 | 2.6 | 6.1 | 0.00 | 0.00 | 0.00 | 68 | 1012.0 |
| 20260510171538 | 82 | 75 | 3.5 | 10.4 | 0.00 | 0.00 | 0.00 | 68 | 1012.2 |
| 20260510170038 | 82 | 87 | 3.5 | 7.8 | 0.00 | 0.00 | 0.00 | 69 | 1012.1 |
| 20260510164546 | 81 | 29 | 1.7 | 6.1 | 0.00 | 0.00 | 0.00 | 72 | 1012.1 |
| 20260510163029 | 80 | 88 | 2.6 | 6.1 | 0.00 | 0.00 | 0.00 | 72 | 1012.0 |
| 20260510161526 | 79 | 86 | 2.6 | 7.8 | 0.00 | 0.00 | 0.00 | 74 | 1012.1 |
| 20260510160032 | 79 | 107 | 3.5 | 7.8 | 0.00 | 0.00 | 0.00 | 75 | 1012.0 |
| 20260510154523 | 79 | 116 | 1.7 | 6.1 | 0.00 | 0.00 | 0.00 | 76 | 1011.9 |
| 20260510153027 | 78 | 37 | 0.9 | 4.3 | 0.00 | 0.00 | 0.00 | 78 | 1011.8 |
| 20260510151515 | 76 | 163 | 0.0 | 2.6 | 0.00 | 0.00 | 0.00 | 79 | 1011.5 |
| 20260510150014 | 74 | 119 | 0.0 | 2.6 | 0.00 | 0.00 | 0.00 | 81 | 1011.4 |
| 20260510144513 | 74 | 117 | 0.0 | 4.3 | 0.00 | 0.00 | 0.00 | 80 | 1011.4 |
| 20260510143009 | 74 | 149 | 0.9 | 4.3 | 0.00 | 0.00 | 0.00 | 81 | 1011.2 |
| 20260510141508 | 73 | 185 | 0.0 | 3.5 | 0.00 | 0.00 | 0.00 | 81 | 1011.1 |
| 20260510140005 | 73 | 185 | 1.7 | 4.3 | 0.00 | 0.00 | 0.00 | 81 | 1011.0 |
| 20260510134504 | 73 | 195 | 1.7 | 4.3 | 0.00 | 0.00 | 0.00 | 81 | 1010.9 |
| 20260510133002 | 72 | 195 | 0.9 | 3.5 | 0.00 | 0.00 | 0.00 | 81 | 1010.6 |
| 20260510131605 | 71 | 280 | 0.0 | 0.0 | 0.00 | 0.00 | 0.00 | 80 | 1010.4 |
| 20260510130059 | 70 | 198 | 0.0 | 0.0 | 0.00 | 0.00 | 0.00 | 80 | 1010.0 |
| 20260510124612 | 69 | 198 | 0.0 | 0.0 | 0.00 | 0.00 | 0.00 | 80 | 1010.1 |
| 20260510123058 | 68 | 198 | 0.0 | 0.0 | 0.00 | 0.00 | 0.00 | 80 | 1010.0 |
| 20260510121556 | 68 | 198 | 0.0 | 0.0 | 0.00 | 0.00 | 0.00 | 80 | 1009.9 |
| 20260510120055 | 67 | 198 | 0.0 | 0.0 | 0.00 | 0.00 | 0.00 | 79 | 1009.6 |
| 20260510114554 | 67 | 198 | 0.0 | 0.0 | 0.00 | 0.00 | 0.00 | 78 | 1009.6 |
| 20260510113101 | 67 | 198 | 0.0 | 0.0 | 0.00 | 0.00 | 0.00 | 78 | 1009.4 |
| 20260510111607 | 68 | 198 | 0.0 | 0.0 | 0.00 | 0.00 | 0.00 | 78 | 1009.5 |
| 20260510110049 | 68 | 198 | 0.0 | 0.0 | 0.00 | 0.00 | 0.00 | 77 | 1009.8 |
| 20260510104601 | 69 | 198 | 0.0 | 0.0 | 0.00 | 0.00 | 0.00 | 77 | 1009.8 |
| 20260510103046 | 69 | 198 | 0.0 | 0.0 | 0.00 | 0.00 | 0.00 | 77 | 1009.8 |
| 20260510101544 | 69 | 198 | 0.0 | 0.0 | 0.00 | 0.00 | 0.00 | 76 | 1009.9 |
| 20260510100043 | 70 | 198 | 0.0 | 0.0 | 0.00 | 0.00 | 0.00 | 75 | 1009.8 |
| 20260510094547 | 70 | 198 | 0.0 | 0.0 | 0.00 | 0.00 | 0.00 | 75 | 1009.8 |
| 20260510093041 | 70 | 198 | 0.0 | 0.9 | 0.00 | 0.00 | 0.00 | 75 | 1009.4 |
| 20260510091551 | 70 | 200 | 0.0 | 0.0 | 0.00 | 0.00 | 0.00 | 73 | 1009.5 |
| 20260510090038 | 70 | 200 | 0.0 | 0.0 | 0.00 | 0.00 | 0.00 | 73 | 1009.6 |
| 20260510084544 | 71 | 200 | 0.0 | 0.0 | 0.00 | 0.00 | 0.00 | 71 | 1009.5 |
| 20260510083034 | 71 | 200 | 0.0 | 0.0 | 0.00 | 0.00 | 0.00 | 70 | 1009.3 |
| 20260510081538 | 72 | 200 | 0.0 | 0.0 | 0.00 | 0.00 | 0.00 | 69 | 1009.3 |
| 20260510080028 | 72 | 200 | 0.0 | 0.0 | 0.00 | 0.00 | 0.00 | 68 | 1009.2 |
| 20260510074530 | 73 | 200 | 0.0 | 0.0 | 0.00 | 0.00 | 0.00 | 68 | 1009.3 |
| 20260510073034 | 73 | 200 | 0.0 | 0.0 | 0.00 | 0.00 | 0.00 | 67 | 1009.2 |
| 20260510071534 | 74 | 202 | 0.0 | 2.6 | 0.00 | 0.00 | 0.00 | 66 | 1009.1 |
| 20260510070026 | 74 | 181 | 0.0 | 2.6 | 0.00 | 0.00 | 0.00 | 66 | 1009.1 |
| 20260510064545 | 74 | 180 | 0.0 | 2.6 | 0.00 | 0.00 | 0.00 | 66 | 1009.2 |
| 20260510063022 | 75 | 169 | 0.9 | 5.2 | 0.00 | 0.00 | 0.00 | 66 | 1009.1 |
| 20260510061617 | 75 | 173 | 0.9 | 2.6 | 0.00 | 0.00 | 0.00 | 67 | 1009.3 |
| 20260510060027 | 75 | 171 | 0.0 | 4.3 | 0.00 | 0.00 | 0.00 | 67 | 1009.2 |
| 20260510054512 | 76 | 184 | 0.0 | 2.6 | 0.00 | 0.00 | 0.00 | 67 | 1009.1 |
| 20260510053011 | 76 | 148 | 0.9 | 4.3 | 0.00 | 0.00 | 0.00 | 67 | 1009.0 |
| 20260510051509 | 76 | 176 | 1.7 | 5.2 | 0.00 | 0.00 | 0.00 | 67 | 1008.9 |
| 20260510050009 | 76 | 180 | 0.9 | 3.5 | 0.00 | 0.00 | 0.00 | 66 | 1008.9 |
| 20260510044508 | 77 | 173 | 0.0 | 0.9 | 0.00 | 0.00 | 0.00 | 65 | 1008.7 |
| 20260510043005 | 78 | 173 | 0.0 | 3.5 | 0.00 | 0.00 | 0.00 | 65 | 1008.7 |
| 20260510041504 | 78 | 177 | 0.9 | 3.5 | 0.00 | 0.00 | 0.00 | 64 | 1008.7 |
| 20260510040004 | 78 | 161 | 0.9 | 2.6 | 0.00 | 0.00 | 0.00 | 64 | 1008.6 |
| 20260510034503 | 78 | 163 | 0.0 | 1.7 | 0.00 | 0.00 | 0.00 | 64 | 1008.4 |
| 20260510033002 | 79 | 165 | 0.9 | 1.7 | 0.00 | 0.00 | 0.00 | 63 | 1008.2 |
| 20260510031503 | 79 | 166 | 0.0 | 0.9 | 0.00 | 0.00 | 0.00 | 63 | 1007.9 |
| 20260510030002 | 79 | 166 | 0.0 | 1.7 | 0.00 | 0.00 | 0.00 | 62 | 1007.8 |
| 20260510024601 | 80 | 166 | 0.0 | 1.7 | 0.00 | 0.00 | 0.00 | 62 | 1007.7 |
| 20260510023001 | 80 | 166 | 0.0 | 0.0 | 0.00 | 0.00 | 0.00 | 60 | 1007.5 |
| 20260510021600 | 81 | 166 | 0.0 | 0.0 | 0.00 | 0.00 | 0.00 | 59 | 1007.4 |
| 20260510020100 | 82 | 166 | 0.0 | 0.0 | 0.00 | 0.00 | 0.00 | 57 | 1007.3 |
| 20260510014601 | 82 | 166 | 0.0 | 0.0 | 0.00 | 0.00 | 0.00 | 56 | 1007.0 |
| 20260510013103 | 83 | 166 | 0.0 | 1.7 | 0.00 | 0.00 | 0.00 | 55 | 1006.8 |
| 20260510011600 | 84 | 166 | 0.9 | 1.7 | 0.00 | 0.00 | 0.00 | 53 | 1006.7 |
| 20260510010057 | 85 | 166 | 0.9 | 2.6 | 0.00 | 0.00 | 0.00 | 51 | 1006.6 |
| 20260510004557 | 86 | 175 | 0.9 | 2.6 | 0.00 | 0.00 | 0.00 | 48 | 1006.5 |
| 20260510003100 | 86 | 130 | 0.9 | 3.5 | 0.00 | 0.00 | 0.00 | 47 | 1006.3 |
| 20260510001556 | 87 | 169 | 1.7 | 4.3 | 0.00 | 0.00 | 0.00 | 44 | 1006.1 |
| 20260510000104 | 88 | 133 | 1.7 | 3.5 | 0.00 | 0.00 | 0.00 | 45 | 1006.0 |
| 20260509234605 | 88 | 172 | 2.6 | 7.8 | 0.00 | 0.00 | 0.00 | 46 | 1005.7 |
| 20260509233057 | 89 | 154 | 4.3 | 7.0 | 0.00 | 0.00 | 0.00 | 44 | 1005.5 |
| 20260509231609 | 90 | 170 | 1.7 | 4.3 | 0.00 | 0.00 | 0.00 | 40 | 1005.8 |
| 20260509224553 | 90 | 170 | 0.9 | 6.1 | 0.00 | 0.00 | 0.00 | 42 | 1006.2 |
| 20260509223049 | 90 | 192 | 0.9 | 3.5 | 0.00 | 0.00 | 0.00 | 44 | 1006.1 |
| 20260509221547 | 90 | 173 | 1.7 | 6.1 | 0.00 | 0.00 | 0.00 | 46 | 1006.0 |
| 20260509220045 | 91 | 255 | 0.0 | 3.5 | 0.00 | 0.00 | 0.00 | 48 | 1006.0 |
| 20260509214545 | 90 | 174 | 1.7 | 7.8 | 0.00 | 0.00 | 0.00 | 48 | 1006.1 |
| 20260509213046 | 90 | 294 | 0.0 | 4.3 | 0.00 | 0.00 | 0.00 | 49 | 1006.2 |